Location: Nairn
(57.5833°N, 3.8667°W)
Time: 17:54:42
(UTC+00:00)

Envisat - Visible Passes

Search period start: 06 December 2021 00:00
Search period end: 16 December 2021 00:00
Orbit: 764 x 766 km, 98.2° (Epoch: 05 December)

Date Brightness Start Highest point End Pass type
(mag) Time Alt. Az. Time Alt. Az. Time Alt. Az.
06 Dec 5.2 04:17:11 10° NE 04:21:15 23° E 04:25:17 10° SE visible
06 Dec 2.9 05:55:44 10° NNE 06:00:50 76° WNW 06:05:55 10° SSW visible
06 Dec 4.2 07:35:33 10° N 07:39:11 20° NW 07:42:48 10° W visible
06 Dec 5.3 17:20:02 10° SSW 17:24:18 27° W 17:28:35 10° NNW visible
07 Dec 5.9 03:41:29 10° NE 03:43:49 13° E 03:46:10 10° ESE visible
07 Dec 3.4 05:18:51 10° NNE 05:23:56 62° ESE 05:28:57 10° S visible
07 Dec 3.7 06:58:15 10° N 07:02:42 31° WNW 07:07:08 10° WSW visible
07 Dec 4.2 16:42:13 10° S 16:47:06 47° W 16:52:03 10° NNW visible
08 Dec 4.5 04:42:10 10° NNE 04:46:50 34° E 04:51:27 10° SSE visible
08 Dec 3.1 06:21:08 10° N 06:26:05 52° WNW 06:31:00 10° SW visible
08 Dec 5.8 17:46:30 10° SW 17:49:57 18° W 17:53:23 10° NW visible
09 Dec 5.4 04:05:51 10° NE 04:09:33 20° E 04:13:12 10° SE visible
09 Dec 2.9 05:44:09 10° NNE 05:49:17 89° WNW 05:54:23 10° SSW visible
09 Dec 4.1 07:23:50 10° N 07:27:45 23° NW 07:31:39 10° WSW visible
09 Dec 5.0 17:08:06 10° SSW 17:12:37 31° W 17:17:10 10° NNW visible
10 Dec 6.1 03:30:54 10° ENE 03:32:03 11° ENE 03:33:12 10° E visible
10 Dec 3.7 05:07:19 10° NNE 05:12:19 52° E 05:17:16 10° S visible
10 Dec 3.5 06:46:36 10° N 06:51:14 36° WNW 06:55:51 10° SW visible
10 Dec 3.8 16:30:30 10° S 16:35:29 56° W 16:40:32 10° NNW visible
10 Dec 6.1 18:13:52 10° W 18:15:41 12° W 18:17:30 10° WNW visible
11 Dec 4.8 04:30:43 10° NNE 04:35:10 29° E 04:39:34 10° SSE visible
11 Dec 2.9 06:09:31 10° NNE 06:14:33 61° WNW 06:19:34 10° SW visible
11 Dec 4.4 07:49:32 10° N 07:52:43 17° NW 07:55:54 10° W visible
11 Dec 5.6 17:34:22 10° SW 17:38:13 21° W 17:42:05 10° NW visible
12 Dec 5.6 03:54:36 10° NE 03:57:49 17° E 04:01:01 10° ESE visible
12 Dec 3.1 05:32:35 10° NNE 05:37:43 78° ESE 05:42:48 10° SSW visible
12 Dec 3.9 07:12:08 10° N 07:16:19 26° NW 07:20:28 10° WSW visible
12 Dec 4.6 16:56:15 10° SSW 17:00:58 37° W 17:05:42 10° NNW visible
13 Dec 4.1 04:55:49 10° NNE 05:00:41 43° E 05:05:31 10° S visible
13 Dec 3.3 06:34:57 10° N 06:39:45 42° WNW 06:44:31 10° SW visible
13 Dec 3.5 16:18:50 10° S 16:23:53 67° WSW 16:28:59 10° NNW visible
13 Dec 6.0 18:01:13 10° WSW 18:03:55 14° W 18:06:37 10° NW visible
14 Dec 5.1 04:19:19 10° NE 04:23:28 25° E 04:27:37 10° SE visible
14 Dec 2.9 05:57:55 10° NNE 06:03:01 73° WNW 06:08:05 10° SSW visible
14 Dec 4.3 07:37:47 10° N 07:41:19 19° NW 07:44:51 10° W visible
14 Dec 5.4 17:22:20 10° SW 17:26:30 25° W 17:30:43 10° NW visible
15 Dec 5.8 03:43:29 10° NE 03:46:04 14° E 03:48:38 10° ESE visible
15 Dec 3.3 05:21:02 10° NNE 05:26:07 65° ESE 05:31:11 10° S visible
15 Dec 3.7 07:00:28 10° N 07:04:52 30° NW 07:09:14 10° WSW visible
15 Dec 4.3 16:44:27 10° S 16:49:18 44° W 16:54:13 10° NNW visible
